SCP
0 0 0 0 0 0 0 0 0 0 0 0 0 0 0 0 0 0 0 0 0 0 0 0 0 0 0 0 0 0 0 0 0 0 0 0 0 0 0 0 0 0 0
0 0 0 0 0 0 0 0 0 0 0 0 0 0 0 0 0 0 0 0 0 0 0 0 0 0 0 0 0 0 0 0 0 0 0 0 0 0 0 0 0 0 0
0 0 0 0 0 0 0 0 0 0 0 0 0 0 0 0 0 0 0 0 0 0 0 0 0 0 0 0 0 0 0 0 0 0 0 0 0 0 0 0 0 0 0
0 0 0 0 0 0 0 0 0 0 0 0 0 0 0 0 0 0 0 0 0 0 0 0 0 0 0 0 0 0 0 0 0 0 0 0 0 0 0 0 0 0 0
0 0 0 0 0 0 0 0 0 0 0 0 0 0 0 0 0 0 0 0 0 0 0 0 0 0 0 0 0 0 0 0 0 0 0 0 0 0 0 0 0 0 0
0 0 0 0 0 0 0 0 0 0 0 0 0 0 0 0 0 0 0 0 0 0 0 0 0 0 0 0 0 0 0 0 0 0 0 0 0 0 0 0 0 0 0
0 0 0 0 0 0 0 0 0 0 0 0 0 0 0 0 0 0 0 0 0 0 0 0 0 0 0 0 0 0 0 0 0 0 0 0 0 0 0 0 0 0 0
0 0 0 0 0 0 0 0 0 0 0 0 0 0 0 0 0 0 0 0 0 0 0 0 0 0 0 0 0 0 0 0 0 0 0 0 0 0 0 0 0 0 0
0 0 0 0 0 0 0 0 0 0 0 0 0 0 0 0 0 0 0 0 0 0 0 0 0 0 0 0 0 0 0 0 0 0 0 0 0 0 0 0 0 0 0
0 0 0 0 0 0 0 0 0 0 0 0 0 0 0 0 0 0 0 0 0 0 0 0 0 0 0 0 0 0 0 0 0 0 0 0 0 0 0 0 0 0 0
0 0 0 0 0 0 0 0 0 0 0 0 0 0 0 0 0 0 0 0 0 0 0 0 0 0 0 0 0 0 0 0 0 0 0 0 0 0 0 0 0 0 0
0 0 0 0 0 0 0 0 0 0 0 0 0 0 0 0 0 0 0 0 0 0 0 0 0 0 0 0 0 0 0 0 0 0 0 0 0 0 0 0 0 0 0
0 0 0 0 0 0 0 0 0 0 0 0 0 0 0 0 0 0 0 0 0 0 0 0 0 0 0 0 0 0 0 0 0 0 0 0 0 0 0 0 0 0 0
0 0 0 0 0 0 0 0 0 0 0 0 0 0 0 0 0 0 0 0 0 0 0 0 0 0 0 0 0 0 0 0 0 0 0 0 0 0 0 0 0 0 0
0 0 0 0 0 0 0 0 0 0 0 0 0 0 0 0 0 0 0 0 0 0 0 0 0 0 0 0 0 0 0 0 0 0 0 0 0 0 0 0 0 0 0
0 0 0 0 0 0 0 0 0 0 0 0 0 0 0 0 0 0 0 0 0 0 0 0 0 0 0 0 0 0 0 0 0 0 0 0 0 0 0 0 0 0 0
0 0 0 0 0 0 0 0 0 0 0 0 0 0 0 0 0 0 0 0 0 0 0 0 0 0 0 0 0 0 0 0 0 0 0 0 0 0 0 0 0 0 0
0 0 0 0 0 0 0 0 0 0 0 0 0 0 0 0 0 0 0 0 0 0 0 0 0 0 0 0 0 0 0 0 0 0 0 0 0 0 0 0 0 0 0
0 0 0 0 0 0 0 0 0 0 0 0 0 0 0 0 0 0 0 0 0 0 0 0 0 0 0 0 0 0 0 0 0 0 0 0 0 0 0 0 0 0 0
0 0 0 0 0 0 0 0 0 0 0 0 0 0 0 0 0 0 0 0 0 0 0 0 0 0 0 0 0 0 0 0 0 0 0 0 0 0 0 0 0 0 0
0 0 0 0 0 0 0 0 0 0 0 0 0 0 0 0 0 0 0 0 0 0 0 0 0 0 0 0 0 0 0 0 0 0 0 0 0 0 0 0 0 0 0
0 0 0 0 0 0 0 0 0 0 0 0 0 0 0 0 0 0 0 0 0 0 0 0 0 0 0 0 0 0 0 0 0 0 0 0 0 0 0 0 0 0 0
0 0 0 0 0 0 0 0 0 0 0 0 0 0 0 0 0 0 0 0 0 0 0 0 0 0 0 0 0 0 0 0 0 0 0 0 0 0 0 0 0 0 0
0 0 0 0 0 0 0 0 0 0 0 0 0 0 0 0 0 0 0 0 0 0 0 0 0 0 0 0 0 0 0 0 0 0 0 0 0 0 0 0 0 0 0
0 0 0 0 0 0 0 0 0 0 0 0 0 0 0 0 0 0 0 0 0 0 0 0 0 0 0 0 0 0 0 0 0 0 0 0 0 0 0 0 0 0 0
0 0 0 0 0 0 0 0 0 0 0 0 0 0 0 0 0 0 0 0 0 0 0 0 0 0 0 0 0 0 0 0 0 0 0 0 0 0 0 0 0 0 0
Wind_Speed_500mb
116 117 127 129 117 110 108 102 90 88 83 81 76 69 68 66 66 66 66 63 60 52 55 63 67 66 70 69 70 71 69 69 81 80 79 75 67 67 59 62 63 65 69
109 113 118 125 116 112 105 97 90 90 82 74 69 65 65 65 66 64 59 55 58 57 61 59 59 59 66 67 69 71 66 62 63 65 71 72 72 80 77 69 59 64 73
97 109 115 117 113 109 100 91 90 86 77 73 68 64 66 64 62 58 56 56 61 61 59 60 60 61 62 65 69 65 59 53 54 54 55 62 67 68 66 67 61 67 73
95 106 108 110 109 102 92 87 84 80 74 72 65 62 65 61 59 55 55 58 60 59 64 58 56 57 63 58 54 50 51 51 52 54 54 57 60 62 73 71 68 74 74
96 102 102 102 100 93 87 80 74 71 65 59 54 54 55 57 55 55 57 57 55 62 53 53 59 61 60 52 59 54 63 61 59 58 62 65 62 67 71 74 73 71 76
92 96 96 95 92 89 78 69 64 60 57 53 51 48 48 53 54 56 52 60 56 52 56 59 53 55 59 59 57 56 63 58 60 56 60 63 62 52 59 66 68 72 72
89 89 88 82 80 73 67 66 63 60 56 54 52 52 53 59 61 55 54 49 57 55 54 52 55 57 59 58 59 62 51 46 54 57 46 41 45 46 51 59 60 63 72
79 75 75 69 70 70 67 63 59 56 54 54 55 54 53 51 53 59 59 57 57 54 48 47 45 45 46 42 37 34 33 39 41 44 44 40 43 49 52 56 52 54 59
69 69 69 66 68 69 66 61 58 59 58 54 53 53 55 53 55 55 47 43 44 37 27 25 26 26 30 31 33 34 35 33 38 41 42 43 47 48 51 48 52 52 58
61 63 61 59 62 63 58 57 53 50 52 53 51 47 43 40 36 30 27 26 24 23 21 23 26 30 33 34 35 35 34 34 35 36 38 40 41 40 39 37 35 41 46
50 54 54 54 53 52 56 52 53 53 50 46 44 39 34 31 30 28 25 22 22 23 24 26 27 29 29 32 32 32 35 36 35 37 36 35 34 33 29 29 32 35 44
50 54 56 55 53 52 50 50 47 46 45 44 41 40 35 31 27 24 22 20 20 20 21 23 22 23 24 24 26 29 31 32 29 28 28 26 25 26 27 27 29 34 38
52 52 49 48 47 44 45 48 49 45 44 45 40 36 33 28 24 20 18 17 18 16 16 16 15 14 14 16 19 19 23 20 19 20 20 21 23 25 27 30 32 38 44
46 47 48 48 48 45 43 43 43 44 43 44 40 37 33 26 19 17 15 14 13 10 8 10 9 9 8 11 15 14 17 18 18 17 16 21 23 26 31 35 38 40 47
49 49 47 43 44 48 46 43 43 40 33 39 38 32 27 23 19 15 13 12 11 9 9 8 9 7 5 8 12 13 13 15 16 20 21 21 23 26 26 30 37 40 45
47 51 50 49 54 57 61 60 46 43 41 35 32 23 27 24 22 18 17 15 12 9 7 7 6 4 9 11 10 14 16 17 20 21 24 26 28 30 33 35 37 39 45
46 51 45 48 55 57 56 57 61 50 47 42 36 32 28 26 24 21 16 13 11 7 5 4 5 6 7 10 13 15 17 21 22 23 25 27 29 32 35 38 40 42 45
54 40 43 53 54 55 53 50 48 48 47 44 39 33 30 25 20 17 13 10 8 5 3 5 6 9 13 16 19 21 23 26 29 31 31 30 29 33 36 39 41 44 47
51 55 59 57 54 51 50 49 48 45 41 37 33 28 24 20 15 11 7 4 3 3 6 9 11 14 16 20 24 25 28 29 31 33 35 36 36 37 39 40 41 42 44
62 62 60 57 54 52 48 45 44 40 37 33 29 23 16 10 6 3 1 5 7 11 14 14 16 18 20 22 26 26 27 30 31 34 37 39 42 45 48 48 47 47 46
63 63 58 55 52 48 46 43 40 36 30 26 20 15 10 7 4 5 7 9 13 14 16 18 20 23 24 23 24 27 28 28 30 31 34 36 39 42 43 46 48 49 52
61 58 56 53 49 45 40 34 30 26 20 15 11 7 6 5 7 8 11 14 16 18 19 21 23 23 23 21 21 22 25 28 29 30 31 32 34 35 37 39 40 42 43
54 52 49 44 38 32 27 23 19 17 13 10 8 6 6 9 12 14 15 17 19 19 18 18 17 18 21 22 25 27 29 31 34 36 38 39 39 40 39 41 41 42 43
44 40 32 24 17 18 19 16 12 10 8 6 6 8 11 14 16 16 15 14 15 16 15 16 17 20 23 26 28 31 32 33 34 36 38 39 39 40 41 40 39 39 41
26 23 20 19 18 14 9 6 7 8 8 8 10 13 14 15 14 13 13 13 13 15 19 22 24 26 28 30 32 34 35 36 37 39 39 39 39 39 40 39 40 41 41
21 17 14 10 9 9 9 11 12 12 12 13 13 13 13 14 15 16 17 18 20 22 24 28 31 33 35 36 37 38 38 38 38 36 36 37 37 37 37 39 39 39 41
Wind_Direction_500mb
249 246 242 238 237 236 234 238 239 239 240 239 239 236 234 237 237 238 240 243 244 248 250 249 253 257 257 261 265 268 270 274 271 272 274 270 271 269 273 265 261 256 255
249 246 242 238 235 232 231 234 236 236 238 240 240 237 234 234 235 235 237 239 241 248 252 253 257 256 256 262 264 267 271 275 275 281 281 282 269 268 263 264 260 271 255
247 242 239 234 232 229 228 229 234 235 236 237 237 235 234 232 232 232 233 240 249 250 254 255 257 257 260 262 267 261 271 278 278 276 281 283 279 269 260 261 262 268 257
243 238 235 233 229 228 226 227 231 234 233 235 233 232 230 229 230 231 236 243 247 252 253 251 256 259 262 268 262 269 271 272 274 273 270 273 274 268 261 262 262 257 256
241 235 232 230 228 226 223 223 225 229 232 232 228 225 224 225 227 235 240 245 247 241 245 253 257 257 261 264 269 269 270 267 270 273 269 271 273 266 272 272 259 259 256
241 233 228 224 223 222 219 219 218 220 224 224 224 223 226 228 234 238 239 248 229 250 252 257 257 259 261 263 264 263 268 275 278 274 269 270 270 271 272 272 263 256 252
236 231 227 221 219 218 213 209 210 211 214 216 220 222 222 230 234 233 224 238 247 250 252 256 251 254 257 257 258 264 271 268 268 263 262 272 279 280 281 275 269 270 268
230 225 220 214 209 207 205 203 202 204 207 213 217 213 215 223 231 232 234 240 249 249 247 246 249 252 256 257 255 259 269 265 259 266 267 270 278 277 278 280 277 275 267
220 215 210 204 203 201 199 199 196 194 195 202 211 217 217 217 227 236 239 237 239 241 236 240 246 254 260 262 262 262 265 264 267 274 281 283 282 283 284 284 281 279 274
208 201 197 192 195 191 190 190 190 192 193 195 199 205 211 214 218 212 204 200 209 218 227 242 249 253 257 261 265 268 275 276 281 280 279 281 283 283 288 289 289 284 276
190 182 178 179 184 183 180 177 180 181 182 184 187 185 188 192 191 184 189 197 209 222 231 241 250 258 263 267 271 275 275 275 277 277 276 278 279 283 284 289 289 280 273
181 172 169 170 172 173 172 168 174 177 176 172 174 174 174 183 191 188 188 197 208 218 229 236 248 261 270 279 282 281 284 286 283 288 291 291 290 288 284 281 280 278 275
177 168 165 165 167 166 168 168 168 168 169 163 168 173 176 182 185 184 187 192 201 210 217 230 248 267 279 285 289 290 289 288 296 298 294 294 295 293 293 293 289 285 282
176 167 165 164 159 158 160 165 167 166 169 166 171 176 175 173 170 174 173 173 174 178 183 216 232 257 274 292 297 295 295 298 299 295 299 302 304 305 304 299 295 290 287
176 170 165 164 162 157 154 156 160 158 167 163 164 164 159 154 157 150 133 127 128 148 161 185 198 214 243 275 284 280 278 284 291 295 300 300 301 303 304 299 298 298 298
174 165 160 159 160 158 153 147 149 148 149 149 139 136 131 127 122 119 119 124 129 129 150 172 180 205 243 279 278 289 293 294 293 295 296 297 298 299 298 296 294 296 298
172 158 154 158 158 155 153 151 145 142 139 137 134 132 130 130 129 130 126 113 107 107 153 132 77 43 6 349 338 332 327 324 320 311 303 300 298 296 297 297 299 299 300
167 164 167 158 155 154 153 148 146 145 142 136 135 136 133 126 120 112 101 92 87 102 49 18 352 336 330 324 321 317 317 313 312 313 313 312 306 301 298 300 301 302 303
162 159 156 153 151 151 146 142 139 137 136 135 135 129 124 119 117 109 96 128 245 286 308 315 315 311 310 308 306 307 306 306 308 309 309 309 308 303 301 300 299 299 301
155 151 151 149 148 148 144 142 139 138 134 130 131 130 125 123 106 96 223 273 305 315 314 307 303 303 303 302 299 299 297 299 301 300 300 301 301 301 299 298 299 299 298
148 146 146 146 148 145 144 144 138 135 136 137 138 136 140 160 191 254 285 296 304 309 306 308 310 310 307 307 308 309 308 308 307 307 306 304 302 300 297 295 295 294 291
144 144 145 149 147 145 144 140 137 139 140 141 148 168 212 243 266 283 292 298 300 304 306 307 306 302 299 305 308 310 314 318 317 316 315 315 314 313 311 309 308 305 301
144 144 145 143 140 141 140 142 145 148 158 168 190 220 258 273 287 293 295 300 302 301 300 298 297 305 313 320 320 319 321 320 317 318 319 322 322 319 319 318 318 316 313
138 136 127 124 141 166 170 165 166 172 183 201 239 261 274 284 288 288 291 294 297 300 305 307 311 312 311 309 310 313 313 312 312 313 314 316 318 319 319 319 320 319 315
138 136 142 163 170 170 173 185 215 223 239 254 265 273 275 274 277 284 291 291 291 293 298 301 301 302 301 304 307 307 304 304 308 311 313 315 317 318 317 319 321 320 318
139 155 166 177 201 221 236 244 253 258 259 260 261 266 272 277 282 286 286 287 287 291 295 297 298 298 300 300 299 298 299 302 303 305 307 308 313 315 316 315 315 317 320
Wind_Speed_850mb
116 117 127 129 117 110 108 102 90 88 83 81 76 69 68 66 66 66 66 63 60 52 55 63 67 66 70 69 70 71 69 69 81 80 79 75 67 67 59 62 63 65 69
109 113 118 125 116 112 105 97 90 90 82 74 69 65 65 65 66 64 59 55 58 57 61 59 59 59 66 67 69 71 66 62 63 65 71 72 72 80 77 69 59 64 73
97 109 115 117 113 109 100 91 90 86 77 73 68 64 66 64 62 58 56 56 61 61 59 60 60 61 62 65 69 65 59 53 54 54 55 62 67 68 66 67 61 67 73
95 106 108 110 109 102 92 87 84 80 74 72 65 62 65 61 59 55 55 58 60 59 64 58 56 57 63 58 54 50 51 51 52 54 54 57 60 62 73 71 68 74 74
96 102 102 102 100 93 87 80 74 71 65 59 54 54 55 57 55 55 57 57 55 62 53 53 59 61 60 52 59 54 63 61 59 58 62 65 62 67 71 74 73 71 76
92 96 96 95 92 89 78 69 64 60 57 53 51 48 48 53 54 56 52 60 56 52 56 59 53 55 59 59 57 56 63 58 60 56 60 63 62 52 59 66 68 72 72
89 89 88 82 80 73 67 66 63 60 56 54 52 52 53 59 61 55 54 49 57 55 54 52 55 57 59 58 59 62 51 46 54 57 46 41 45 46 51 59 60 63 72
79 75 75 69 70 70 67 63 59 56 54 54 55 54 53 51 53 59 59 57 57 54 48 47 45 45 46 42 37 34 33 39 41 44 44 40 43 49 52 56 52 54 59
69 69 69 66 68 69 66 61 58 59 58 54 53 53 55 53 55 55 47 43 44 37 27 25 26 26 30 31 33 34 35 33 38 41 42 43 47 48 51 48 52 52 58
61 63 61 59 62 63 58 57 53 50 52 53 51 47 43 40 36 30 27 26 24 23 21 23 26 30 33 34 35 35 34 34 35 36 38 40 41 40 39 37 35 41 46
50 54 54 54 53 52 56 52 53 53 50 46 44 39 34 31 30 28 25 22 22 23 24 26 27 29 29 32 32 32 35 36 35 37 36 35 34 33 29 29 32 35 44
50 54 56 55 53 52 50 50 47 46 45 44 41 40 35 31 27 24 22 20 20 20 21 23 22 23 24 24 26 29 31 32 29 28 28 26 25 26 27 27 29 34 38
52 52 49 48 47 44 45 48 49 45 44 45 40 36 33 28 24 20 18 17 18 16 16 16 15 14 14 16 19 19 23 20 19 20 20 21 23 25 27 30 32 38 44
46 47 48 48 48 45 43 43 43 44 43 44 40 37 33 26 19 17 15 14 13 10 8 10 9 9 8 11 15 14 17 18 18 17 16 21 23 26 31 35 38 40 47
49 49 47 43 44 48 46 43 43 40 33 39 38 32 27 23 19 15 13 12 11 9 9 8 9 7 5 8 12 13 13 15 16 20 21 21 23 26 26 30 37 40 45
47 51 50 49 54 57 61 60 46 43 41 35 32 23 27 24 22 18 17 15 12 9 7 7 6 4 9 11 10 14 16 17 20 21 24 26 28 30 33 35 37 39 45
46 51 45 48 55 57 56 57 61 50 47 42 36 32 28 26 24 21 16 13 11 7 5 4 5 6 7 10 13 15 17 21 22 23 25 27 29 32 35 38 40 42 45
54 40 43 53 54 55 53 50 48 48 47 44 39 33 30 25 20 17 13 10 8 5 3 5 6 9 13 16 19 21 23 26 29 31 31 30 29 33 36 39 41 44 47
51 55 59 57 54 51 50 49 48 45 41 37 33 28 24 20 15 11 7 4 3 3 6 9 11 14 16 20 24 25 28 29 31 33 35 36 36 37 39 40 41 42 44
62 62 60 57 54 52 48 45 44 40 37 33 29 23 16 10 6 3 1 5 7 11 14 14 16 18 20 22 26 26 27 30 31 34 37 39 42 45 48 48 47 47 46
63 63 58 55 52 48 46 43 40 36 30 26 20 15 10 7 4 5 7 9 13 14 16 18 20 23 24 23 24 27 28 28 30 31 34 36 39 42 43 46 48 49 52
61 58 56 53 49 45 40 34 30 26 20 15 11 7 6 5 7 8 11 14 16 18 19 21 23 23 23 21 21 22 25 28 29 30 31 32 34 35 37 39 40 42 43
54 52 49 44 38 32 27 23 19 17 13 10 8 6 6 9 12 14 15 17 19 19 18 18 17 18 21 22 25 27 29 31 34 36 38 39 39 40 39 41 41 42 43
44 40 32 24 17 18 19 16 12 10 8 6 6 8 11 14 16 16 15 14 15 16 15 16 17 20 23 26 28 31 32 33 34 36 38 39 39 40 41 40 39 39 41
26 23 20 19 18 14 9 6 7 8 8 8 10 13 14 15 14 13 13 13 13 15 19 22 24 26 28 30 32 34 35 36 37 39 39 39 39 39 40 39 40 41 41
21 17 14 10 9 9 9 11 12 12 12 13 13 13 13 14 15 16 17 18 20 22 24 28 31 33 35 36 37 38 38 38 38 36 36 37 37 37 37 39 39 39 41
Wind_Direction_850mb
249 246 242 238 237 236 234 238 239 239 240 239 239 236 234 237 237 238 240 243 244 248 250 249 253 257 257 261 265 268 270 274 271 272 274 270 271 269 273 265 261 256 255
249 246 242 238 235 232 231 234 236 236 238 240 240 237 234 234 235 235 237 239 241 248 252 253 257 256 256 262 264 267 271 275 275 281 281 282 269 268 263 264 260 271 255
247 242 239 234 232 229 228 229 234 235 236 237 237 235 234 232 232 232 233 240 249 250 254 255 257 257 260 262 267 261 271 278 278 276 281 283 279 269 260 261 262 268 257
243 238 235 233 229 228 226 227 231 234 233 235 233 232 230 229 230 231 236 243 247 252 253 251 256 259 262 268 262 269 271 272 274 273 270 273 274 268 261 262 262 257 256
241 235 232 230 228 226 223 223 225 229 232 232 228 225 224 225 227 235 240 245 247 241 245 253 257 257 261 264 269 269 270 267 270 273 269 271 273 266 272 272 259 259 256
241 233 228 224 223 222 219 219 218 220 224 224 224 223 226 228 234 238 239 248 229 250 252 257 257 259 261 263 264 263 268 275 278 274 269 270 270 271 272 272 263 256 252
236 231 227 221 219 218 213 209 210 211 214 216 220 222 222 230 234 233 224 238 247 250 252 256 251 254 257 257 258 264 271 268 268 263 262 272 279 280 281 275 269 270 268
230 225 220 214 209 207 205 203 202 204 207 213 217 213 215 223 231 232 234 240 249 249 247 246 249 252 256 257 255 259 269 265 259 266 267 270 278 277 278 280 277 275 267
220 215 210 204 203 201 199 199 196 194 195 202 211 217 217 217 227 236 239 237 239 241 236 240 246 254 260 262 262 262 265 264 267 274 281 283 282 283 284 284 281 279 274
208 201 197 192 195 191 190 190 190 192 193 195 199 205 211 214 218 212 204 200 209 218 227 242 249 253 257 261 265 268 275 276 281 280 279 281 283 283 288 289 289 284 276
190 182 178 179 184 183 180 177 180 181 182 184 187 185 188 192 191 184 189 197 209 222 231 241 250 258 263 267 271 275 275 275 277 277 276 278 279 283 284 289 289 280 273
181 172 169 170 172 173 172 168 174 177 176 172 174 174 174 183 191 188 188 197 208 218 229 236 248 261 270 279 282 281 284 286 283 288 291 291 290 288 284 281 280 278 275
177 168 165 165 167 166 168 168 168 168 169 163 168 173 176 182 185 184 187 192 201 210 217 230 248 267 279 285 289 290 289 288 296 298 294 294 295 293 293 293 289 285 282
176 167 165 164 159 158 160 165 167 166 169 166 171 176 175 173 170 174 173 173 174 178 183 216 232 257 274 292 297 295 295 298 299 295 299 302 304 305 304 299 295 290 287
176 170 165 164 162 157 154 156 160 158 167 163 164 164 159 154 157 150 133 127 128 148 161 185 198 214 243 275 284 280 278 284 291 295 300 300 301 303 304 299 298 298 298
174 165 160 159 160 158 153 147 149 148 149 149 139 136 131 127 122 119 119 124 129 129 150 172 180 205 243 279 278 289 293 294 293 295 296 297 298 299 298 296 294 296 298
172 158 154 158 158 155 153 151 145 142 139 137 134 132 130 130 129 130 126 113 107 107 153 132 77 43 6 349 338 332 327 324 320 311 303 300 298 296 297 297 299 299 300
167 164 167 158 155 154 153 148 146 145 142 136 135 136 133 126 120 112 101 92 87 102 49 18 352 336 330 324 321 317 317 313 312 313 313 312 306 301 298 300 301 302 303
162 159 156 153 151 151 146 142 139 137 136 135 135 129 124 119 117 109 96 128 245 286 308 315 315 311 310 308 306 307 306 306 308 309 309 309 308 303 301 300 299 299 301
155 151 151 149 148 148 144 142 139 138 134 130 131 130 125 123 106 96 223 273 305 315 314 307 303 303 303 302 299 299 297 299 301 300 300 301 301 301 299 298 299 299 298
148 146 146 146 148 145 144 144 138 135 136 137 138 136 140 160 191 254 285 296 304 309 306 308 310 310 307 307 308 309 308 308 307 307 306 304 302 300 297 295 295 294 291
144 144 145 149 147 145 144 140 137 139 140 141 148 168 212 243 266 283 292 298 300 304 306 307 306 302 299 305 308 310 314 318 317 316 315 315 314 313 311 309 308 305 301
144 144 145 143 140 141 140 142 145 148 158 168 190 220 258 273 287 293 295 300 302 301 300 298 297 305 313 320 320 319 321 320 317 318 319 322 322 319 319 318 318 316 313
138 136 127 124 141 166 170 165 166 172 183 201 239 261 274 284 288 288 291 294 297 300 305 307 311 312 311 309 310 313 313 312 312 313 314 316 318 319 319 319 320 319 315
138 136 142 163 170 170 173 185 215 223 239 254 265 273 275 274 277 284 291 291 291 293 298 301 301 302 301 304 307 307 304 304 308 311 313 315 317 318 317 319 321 320 318
139 155 166 177 201 221 236 244 253 258 259 260 261 266 272 277 282 286 286 287 287 291 295 297 298 298 300 300 299 298 299 302 303 305 307 308 313 315 316 315 315 317 320